Wind_Speed
13 14 14 14 14 14 14 12 12 11 9 8 8 9 9 9 10 10 11 12 12 13 14 15 16 18 19 21 22 24 26 23 17 13 7 8 9 6 6 6 4 6 6 7 8 6 5 8 12 13 8 5 5 4 8 10 6 3 3 4 4 3 2 3 5 5 5 4 5 4 4 5 5 3 3 4 8 6 5 5 2 3 3 4 7 15 17 11
14 14 14 14 15 14 14 13 12 11 9 8 8 8 9 9 10 10 11 12 12 13 14 15 16 17 19 20 22 24 25 21 16 13 11 10 8 7 5 5 6 8 7 8 9 6 3 4 4 5 5 3 3 4 5 7 5 4 2 4 3 4 3 4 6 6 5 6 7 5 5 5 6 5 3 3 3 3 5 4 3 4 2 4 8 12 13 9
14 14 15 15 15 14 14 13 12 11 9 7 7 9 9 9 10 10 11 12 12 13 14 15 16 17 19 20 22 23 20 15 8 7 10 10 10 9 7 6 7 9 10 10 9 6 6 9 9 3 3 3 3 4 3 3 3 4 3 5 3 4 3 4 8 7 5 8 8 5 5 5 4 3 3 4 3 3 3 1 1 1 3 3 5 10 10 5
14 15 15 15 15 15 14 13 13 11 9 8 8 8 9 10 10 11 11 12 12 12 14 15 16 17 18 19 21 19 13 6 2 5 5 9 11 8 8 8 7 9 12 11 9 10 11 12 11 5 3 4 4 4 5 4 2 3 3 6 6 5 5 4 7 7 6 7 7 8 8 6 3 2 3 5 5 2 2 2 0 1 2 1 1 3 1 5
14 15 15 15 15 15 14 13 12 11 10 8 7 8 8 9 9 11 11 11 12 12 14 14 16 17 17 19 18 14 7 3 1 4 3 6 8 7 8 7 6 10 12 13 13 13 11 10 7 3 3 3 2 3 5 5 6 4 3 8 9 7 6 5 6 7 6 5 7 10 11 6 3 3 1 4 5 2 4 2 3 3 2 3 1 0 3 3
14 15 15 16 15 15 14 13 12 10 10 9 8 8 8 9 10 10 11 11 11 12 13 14 15 17 18 18 14 7 1 1 3 3 2 5 6 6 6 6 6 8 12 14 15 11 6 5 3 3 3 1 2 3 6 5 8 7 3 7 9 8 9 5 5 8 7 7 7 8 8 6 6 4 2 2 3 2 3 6 6 4 3 4 3 1 2 2
14 15 15 16 16 15 14 12 11 10 10 10 8 8 9 9 9 10 10 11 11 11 12 13 15 16 18 15 9 4 2 4 7 3 4 6 6 5 5 6 6 8 11 13 12 8 7 7 6 0 3 3 4 3 4 4 8 10 7 7 8 9 10 8 7 8 8 9 7 6 8 8 9 6 1 2 1 2 6 6 6 6 7 8 6 3 1 1
15 15 16 16 15 15 13 12 11 10 10 9 8 8 9 9 9 10 10 10 10 11 11 12 13 15 18 12 5 3 1 6 6 3 6 8 7 5 4 5 7 9 12 14 11 8 7 7 7 4 5 6 4 4 3 5 7 10 9 8 8 8 9 10 9 9 10 9 7 8 8 7 9 8 3 2 1 2 6 5 4 5 5 6 6 5 4 2
15 16 16 16 16 14 13 12 11 10 10 9 9 9 9 9 9 10 10 10 10 10 11 12 13 13 15 9 3 2 4 6 3 4 7 8 7 5 4 3 6 10 12 17 15 8 5 5 7 4 4 6 3 5 3 4 3 7 11 11 9 9 9 9 10 10 10 7 8 10 6 6 10 8 3 1 1 3 6 4 4 4 4 4 4 4 4 2
15 16 17 17 16 14 13 12 10 10 10 9 9 9 9 9 9 10 10 10 9 10 10 10 12 12 11 6 3 1 5 3 3 6 7 7 8 6 5 2 5 9 10 15 15 9 5 5 6 3 1 3 4 3 4 5 3 9 12 11 12 12 8 8 9 10 10 6 9 11 7 7 6 4 1 4 3 4 5 4 4 4 4 4 3 3 3 2
16 16 17 17 16 14 12 12 10 10 10 9 9 9 9 9 9 10 9 9 9 9 9 10 12 12 8 2 2 2 5 3 2 5 6 7 8 7 6 4 5 9 9 11 14 14 12 11 9 4 1 3 6 6 2 4 8 13 13 10 10 11 8 8 9 9 9 5 8 11 7 4 1 1 5 7 6 6 5 5 5 5 4 4 3 3 2 1
16 17 18 18 16 14 12 11 10 10 10 9 9 10 10 9 9 10 10 9 9 8 9 9 10 10 6 2 4 9 7 3 1 3 6 6 6 6 6 5 7 10 11 9 14 21 19 17 12 6 3 3 6 4 5 7 10 11 12 12 7 7 6 7 7 7 8 5 9 11 6 2 3 2 8 8 8 7 5 4 4 4 4 3 4 3 3 3
17 18 18 18 16 14 12 11 10 10 9 10 10 10 10 10 10 10 10 9 8 8 8 8 9 8 5 1 10 13 9 6 6 7 10 7 4 5 6 7 8 10 13 13 17 22 21 20 12 5 5 3 3 2 1 4 10 9 7 9 7 6 2 5 5 5 8 9 11 8 3 3 3 5 8 8 10 9 6 5 4 3 3 3 3 3 3 4
18 18 19 18 16 13 12 11 10 10 10 10 11 10 10 10 10 10 10 9 7 7 7 9 9 4 2 5 13 11 10 13 12 13 14 12 9 8 9 11 12 14 15 19 21 20 22 22 10 3 4 2 3 3 5 3 9 8 3 3 4 6 4 7 5 7 8 8 8 7 3 5 4 7 9 9 10 10 8 6 5 4 4 3 3 3 3 3
19 19 19 17 15 13 11 10 10 11 11 11 11 11 11 11 11 10 9 8 6 6 7 8 5 1 1 7 12 8 8 9 9 11 14 16 13 9 11 14 17 18 18 21 23 22 23 19 7 2 4 2 1 3 4 2 4 7 4 1 1 4 5 7 5 9 8 5 4 7 4 5 4 9 10 9 9 9 9 7 6 6 5 4 4 4 3 2
20 20 19 16 14 12 11 10 11 11 11 11 11 11 11 11 11 10 9 7 5 5 5 3 2 2 0 5 8 7 7 6 6 7 10 13 12 11 13 13 14 15 18 23 26 24 19 11 4 3 4 2 1 1 3 4 1 4 6 5 3 4 5 5 4 8 5 6 4 3 5 3 4 9 10 9 9 8 8 7 7 7 6 6 4 4 3 3
20 20 18 16 14 12 11 10 11 11 11 11 12 11 9 10 10 8 7 5 4 4 4 2 1 2 2 7 8 5 4 6 8 8 9 11 12 14 13 7 7 9 12 18 20 15 7 3 2 3 3 2 0 3 3 4 4 2 2 4 4 7 8 4 2 5 3 5 5 2 5 4 5 8 9 10 10 8 8 8 7 7 6 5 4 3 3 3
20 19 17 15 13 11 11 10 10 11 11 12 11 10 9 9 11 9 5 4 3 3 3 2 1 2 2 6 6 5 6 9 12 12 13 14 13 15 12 4 4 7 8 7 7 4 2 2 1 2 4 3 1 3 3 4 5 1 4 5 3 6 9 7 4 6 6 5 6 6 4 4 5 7 8 8 9 8 7 7 6 6 5 4 3 3 2 1
19 18 16 14 12 11 10 10 9 11 12 11 10 10 10 9 9 8 4 1 1 1 1 2 3 1 2 4 6 10 11 10 13 13 16 15 13 15 12 6 3 4 4 3 5 4 2 3 3 3 5 4 4 4 6 9 7 1 5 9 9 7 8 7 5 7 10 5 5 8 5 6 7 7 7 5 6 6 4 4 5 4 3 4 4 3 2 1
19 17 15 13 11 10 10 9 9 10 11 9 8 8 6 4 4 3 2 2 4 5 3 4 5 2 6 5 7 12 14 10 10 14 18 14 9 8 6 2 2 4 2 2 5 4 1 3 5 4 7 8 9 8 7 7 4 4 7 9 11 9 7 7 5 6 10 6 3 7 6 7 8 6 5 2 4 5 4 6 5 4 5 4 5 4 2 1
18 16 14 12 10 9 8 8 8 8 9 7 7 5 1 1 1 1 3 3 7 9 8 9 7 7 11 10 12 12 9 7 6 10 18 14 6 5 3 1 2 3 4 3 4 4 3 3 7 8 9 9 10 10 5 2 5 5 5 7 8 6 6 6 5 7 9 5 2 4 7 6 5 4 1 4 6 5 5 7 6 6 6 5 6 6 3 2
17 14 12 10 8 7 7 7 6 7 7 5 4 1 2 3 1 2 3 3 7 8 10 11 8 9 13 15 21 16 5 5 5 4 11 9 4 4 3 2 3 4 5 3 4 5 5 6 10 9 6 6 8 7 4 2 2 5 5 6 7 4 2 1 5 9 7 4 2 4 7 4 3 4 3 4 4 3 3 6 6 8 7 5 6 6 6 6
16 13 11 9 8 7 6 5 6 7 7 5 4 3 4 4 6 9 5 1 7 5 7 7 6 6 7 11 16 11 5 4 2 5 7 7 3 5 4 3 4 5 4 3 4 3 4 8 10 7 7 8 8 7 5 4 4 5 5 5 4 4 4 1 2 9 4 3 6 6 6 4 4 4 4 4 2 4 4 5 6 6 7 6 5 6 6 7
14 12 10 8 7 6 5 5 5 6 7 7 9 7 8 9 11 12 6 1 5 5 5 8 7 4 7 9 8 3 3 4 3 4 6 7 3 3 4 3 3 3 5 6 6 4 7 12 10 7 7 8 7 8 6 4 5 5 1 5 4 6 7 4 5 9 5 5 9 9 6 3 2 4 3 4 4 6 5 7 8 6 7 7 7 7 6 6
13 11 8 7 6 4 4 5 3 5 8 7 8 14 18 16 13 9 3 1 3 5 4 6 5 6 10 9 6 4 1 2 5 5 5 8 5 3 2 3 3 3 7 8 6 4 9 11 8 6 6 6 5 7 6 3 4 4 2 4 8 9 8 6 10 10 6 2 6 8 5 2 2 4 3 2 5 6 4 6 7 5 6 7 7 7 5 6
13 10 7 5 5 3 2 2 3 5 6 4 9 19 20 14 8 3 1 3 3 4 2 3 3 6 8 6 5 3 1 4 8 10 8 9 9 6 2 2 1 4 6 5 4 2 6 8 7 7 6 6 5 7 4 5 6 1 3 5 5 5 5 10 13 8 5 3 8 5 5 1 2 1 2 2 7 6 4 6 5 4 6 5 6 6 5 6
12 9 6 5 5 2 1 1 4 3 2 5 13 18 15 14 9 2 3 4 4 4 3 2 1 5 6 6 6 5 1 5 5 8 10 10 8 5 4 4 2 6 4 0 2 3 5 8 9 7 5 4 4 5 5 4 5 3 4 5 5 2 3 9 12 8 4 4 4 2 4 4 1 2 1 4 8 7 4 4 3 4 6 5 5 5 6 6
10 8 5 5 6 6 4 3 6 3 3 9 14 14 13 15 9 2 4 2 3 2 3 2 1 3 3 4 8 6 5 3 1 4 8 13 9 5 5 6 4 6 3 3 3 5 4 6 8 6 5 5 3 5 6 3 3 6 7 7 6 1 2 3 5 4 3 7 5 1 3 5 1 3 1 2 6 7 4 5 5 6 6 6 5 4 6 6
9 6 6 5 6 6 6 5 6 3 6 10 12 12 13 11 6 4 4 1 2 1 1 1 1 3 1 2 6 6 5 2 1 3 4 11 9 5 5 7 5 7 4 5 5 7 5 6 6 3 2 4 5 6 5 0 2 5 4 4 5 4 4 2 1 3 2 6 4 6 3 5 1 3 1 2 2 5 6 5 4 5 4 4 4 5 5 5
7 6 6 5 4 3 4 7 6 5 9 10 11 11 10 7 5 4 2 1 2 1 1 0 1 3 4 4 4 6 6 3 1 1 2 4 4 3 3 5 4 4 4 1 4 7 7 7 5 2 4 6 7 7 5 5 5 2 4 5 7 7 5 3 0 2 5 4 3 6 5 5 2 3 3 4 2 6 8 4 4 4 3 3 2 4 4 3
7 6 5 7 8 6 4 4 2 6 8 8 10 8 6 4 3 4 2 3 2 1 1 1 2 4 8 7 4 5 6 4 1 2 3 2 2 1 0 1 2 0 4 3 4 6 7 7 4 4 6 6 5 6 4 3 1 3 5 5 5 7 6 5 5 5 6 1 6 2 5 6 2 1 3 5 3 8 12 9 8 7 4 2 0 3 2 1
6 5 7 10 12 11 7 3 2 4 6 7 7 4 5 3 1 1 2 3 1 3 3 4 4 4 8 8 6 5 4 3 2 4 5 3 4 3 2 4 4 1 2 3 3 6 6 6 6 5 5 5 5 5 5 5 5 5 4 5 5 4 5 4 4 4 3 2 3 1 5 5 2 2 2 7 3 7 10 8 9 9 5 2 1 3 2 2
5 5 7 11 13 14 10 3 5 5 6 5 4 4 5 3 2 4 4 2 1 3 3 5 5 5 8 6 4 5 5 3 4 4 5 4 4 5 5 4 6 5 3 4 2 3 5 8 9 6 6 5 6 5 3 3 2 2 2 4 4 1 2 3 3 2 2 1 0 4 5 3 1 2 7 9 6 3 5 7 7 6 4 2 2 2 1 2
5 4 5 8 13 16 12 2 5 6 8 5 4 5 3 2 3 5 5 2 2 3 1 4 6 6 7 6 4 4 4 3 5 4 5 3 3 4 5 4 6 6 3 2 2 3 3 6 7 5 4 4 6 8 6 4 2 2 4 6 4 3 3 2 2 3 3 2 3 6 4 1 1 3 7 8 8 9 9 8 7 5 3 3 3 3 3 4
6 4 4 7 12 14 12 4 3 6 8 4 5 4 2 4 3 3 3 2 1 3 3 3 6 6 5 5 4 5 5 3 4 3 4 4 4 5 4 4 6 5 4 2 2 3 4 6 9 7 6 6 8 8 6 5 1 3 3 6 1 4 5 2 2 4 5 4 4 4 2 0 2 4 6 7 8 9 9 7 6 6 4 4 4 4 4 4
8 7 5 5 9 9 12 8 2 2 4 4 5 1 4 4 3 3 3 2 1 3 5 1 5 4 3 4 3 5 4 2 3 3 2 4 4 6 6 5 7 8 6 4 3 2 3 6 8 6 6 10 11 8 6 6 2 1 3 3 4 5 8 4 2 3 6 6 2 2 1 3 1 2 4 7 8 8 7 6 5 5 5 5 4 3 3 3
10 8 6 6 5 8 14 10 5 2 2 6 4 4 3 3 4 4 4 3 3 4 3 3 5 3 4 5 4 5 3 0 2 3 2 2 2 5 7 5 8 11 10 8 4 3 4 5 9 8 9 9 7 8 6 5 5 4 2 5 2 2 4 4 3 2 5 4 1 1 1 1 2 1 2 5 7 6 5 5 4 4 4 4 3 2 1 3
10 7 7 7 4 12 15 11 8 4 3 4 2 3 2 4 4 4 6 7 7 6 3 2 4 4 6 6 5 5 6 3 4 4 3 3 3 6 8 6 8 13 13 10 5 4 5 4 9 7 6 2 4 6 3 4 0 4 4 3 3 2 2 2 2 1 3 3 1 2 1 0 0 1 4 5 3 4 3 3 3 3 2 2 1 2 1 3
7 4 4 2 9 15 16 13 8 3 5 2 2 1 3 6 6 8 9 7 6 6 4 2 2 2 5 7 5 5 6 6 6 4 3 4 4 6 10 6 7 13 13 11 6 3 4 2 5 7 4 2 3 2 1 5 6 1 1 2 2 3 2 2 2 2 5 4 1 0 1 1 2 3 2 3 2 6 5 3 3 2 1 1 1 1 1 1
2 2 3 4 14 17 16 12 5 5 4 3 3 2 4 6 8 10 11 8 5 5 3 1 2 1 3 4 2 4 5 6 8 5 3 6 4 5 9 7 5 10 11 12 9 3 2 2 2 7 7 2 1 0 5 4 2 3 4 4 3 2 2 3 3 2 4 5 3 2 0 3 3 1 1 1 1 5 7 5 4 3 2 2 2 3 2 2
2 2 2 8 18 19 14 7 3 3 2 2 2 3 4 5 8 13 14 11 8 5 4 2 2 2 2 2 2 4 4 4 7 5 2 5 5 4 7 9 7 6 7 8 7 4 3 3 3 3 5 1 4 4 5 8 7 5 4 1 1 2 3 5 3 3 2 5 4 4 2 4 3 1 2 2 2 4 6 6 5 3 2 1 2 2 0 3
2 2 3 14 21 17 10 3 1 2 1 2 3 4 6 6 8 11 12 12 9 5 1 2 2 3 3 3 4 5 5 5 7 6 4 6 8 6 7 9 9 7 7 5 6 5 4 4 2 3 3 4 7 6 2 5 8 7 5 3 3 3 4 6 3 2 2 4 2 4 3 3 3 1 3 4 4 4 5 6 5 3 1 1 1 1 3 5
2 1 4 18 23 15 7 2 2 1 2 4 5 7 7 6 8 9 10 10 9 3 1 1 1 1 2 2 2 3 4 6 6 6 5 4 6 9 8 6 8 6 5 2 3 3 2 3 2 3 4 3 4 5 5 4 6 7 6 6 6 5 5 6 5 4 3 3 1 4 2 3 3 1 4 5 5 5 5 5 6 4 2 2 3 4 5 6
1 2 2 16 22 12 4 1 2 1 3 4 5 8 7 7 10 11 10 9 7 2 2 3 2 2 3 2 0 4 4 5 5 4 3 1 3 7 6 6 7 4 3 3 3 2 1 1 3 2 4 6 6 7 7 6 4 5 6 8 9 9 9 6 3 4 3 1 2 4 1 4 2 1 4 5 5 6 5 4 5 5 4 4 4 4 4 5
1 2 1 8 14 7 1 3 2 1 5 5 6 8 7 6 9 11 12 11 7 2 1 3 4 3 4 3 2 4 4 3 2 2 2 1 3 1 4 7 7 5 3 6 6 5 2 2 4 5 2 1 1 1 2 2 2 3 6 8 9 9 10 6 3 5 3 0 2 4 3 3 1 2 4 5 5 6 5 4 3 3 4 5 4 3 4 4
1 1 1 1 4 2 2 2 0 2 4 4 5 6 6 5 6 9 11 9 5 2 1 3 5 5 4 3 3 4 3 2 1 1 2 2 2 2 3 7 7 5 5 8 7 5 3 1 3 6 6 6 6 6 5 2 5 5 7 9 8 8 10 8 5 4 4 3 2 2 5 4 2 3 4 4 5 5 4 4 3 3 4 5 5 4 4 4
2 1 0 1 1 3 3 3 2 3 4 3 3 4 7 9 9 9 8 5 3 3 2 3 3 3 4 4 3 4 5 3 3 3 2 3 1 2 1 5 7 6 6 6 4 5 5 2 1 5 5 4 4 1 3 7 9 9 10 9 7 8 10 9 6 6 7 5 1 4 6 8 6 6 6 5 5 5 4 4 4 3 3 3 3 5 5 4
1 0 1 0 0 3 3 4 5 5 6 5 3 5 9 11 10 8 6 6 6 3 1 3 4 4 6 4 1 2 6 5 3 2 3 3 2 2 3 3 2 4 6 4 2 5 6 0 1 3 4 4 5 9 13 13 10 10 11 11 9 9 12 11 9 10 8 4 3 7 8 7 6 6 7 7 5 5 5 4 4 5 4 2 3 5 5 3
0 1 2 2 1 3 3 4 5 4 5 5 3 5 8 10 11 9 5 5 7 5 3 3 6 8 9 5 2 1 5 3 2 1 2 3 2 2 2 3 4 1 4 4 1 3 5 1 1 3 6 9 10 11 15 15 12 10 10 9 9 10 11 11 8 7 5 5 6 10 9 5 2 4 5 5 4 4 4 4 4 5 5 3 3 5 4 3
1 1 2 3 3 3 3 4 4 4 4 4 3 4 6 8 11 10 7 6 9 7 2 3 7 10 9 5 3 4 7 3 3 3 4 3 1 1 2 2 1 1 3 3 1 3 4 2 2 4 5 6 9 13 14 15 15 11 8 8 11 12 11 11 9 8 8 6 6 10 9 3 1 2 4 4 4 5 5 5 4 4 5 5 4 5 4 2
4 4 3 1 2 3 3 3 3 4 4 3 2 4 6 8 9 9 9 9 12 10 4 4 9 8 5 5 3 7 6 2 1 4 6 5 4 3 2 4 5 3 2 2 1 4 4 1 1 6 5 3 6 13 13 13 15 13 9 6 9 10 8 7 6 5 6 8 8 8 6 4 3 3 4 4 5 5 5 5 4 4 5 5 5 5 5 4
7 5 3 1 1 3 4 3 4 3 3 2 4 6 8 10 9 7 6 7 9 9 6 6 8 5 3 5 4 9 5 2 4 5 6 6 3 4 3 4 6 7 3 2 2 2 4 3 1 4 4 1 4 11 9 8 9 6 4 1 6 9 9 7 5 3 6 9 8 5 4 5 5 5 5 5 5 5 6 6 5 5 5 5 6 7 6 6
Wind_Direction
345 344 342 339 336 334 330 326 323 320 320 317 315 319 318 318 318 318 320 323 329 331 333 332 331 332 332 335 336 334 332 330 327 323 294 240 237 241 275 285 298 298 268 256 248 232 228 218 223 223 206 182 195 205 191 203 207 119 83 90 107 138 142 163 174 162 137 166 215 216 192 139 130 147 133 66 45 67 76 40 20 43 79 125 140 156 165 186
344 342 340 339 336 333 330 327 325 322 322 320 317 317 314 315 315 316 319 323 329 329 332 331 332 333 332 336 335 333 331 327 324 305 261 233 234 231 253 278 286 289 267 260 261 248 261 268 245 198 180 173 195 200 174 187 175 116 116 100 126 187 163 156 152 155 146 155 186 197 186 141 138 164 124 88 32 40 74 28 355 57 82 138 138 158 175 187
345 341 339 337 335 332 329 326 325 324 326 324 316 314 313 312 313 315 319 323 327 329 331 330 332 332 332 335 334 332 329 327 326 279 245 225 226 230 242 266 278 282 276 275 275 264 262 275 283 271 181 201 222 220 194 204 149 110 114 96 150 185 135 151 150 163 169 151 160 171 171 132 133 162 100 114 91 38 98 110 351 71 197 182 151 177 188 139
345 342 338 336 334 331 328 326 326 328 331 327 317 314 312 311 313 315 318 322 326 329 329 330 332 331 333 335 332 328 327 338 311 253 243 221 221 226 234 248 269 280 283 284 279 269 257 258 267 255 209 213 217 206 196 210 134 94 120 127 164 148 107 159 158 165 167 144 144 135 127 124 145 124 109 137 100 27 247 218 161 31 232 213 82 194 218 75
344 342 339 335 332 330 328 327 328 330 330 328 320 311 309 311 313 315 318 321 325 328 328 328 330 330 333 336 333 325 329 49 232 263 260 216 213 216 227 238 266 283 288 293 290 282 259 240 233 196 221 244 203 167 174 164 116 89 114 140 152 134 119 155 147 146 154 122 115 119 118 134 147 71 97 142 118 202 220 163 103 69 2 13 38 356 358 57
341 340 339 335 332 330 327 327 329 330 327 326 319 308 308 309 311 315 316 318 323 326 327 327 330 330 334 340 338 327 21 133 262 247 197 188 194 211 232 245 270 292 298 301 298 300 297 270 263 146 182 275 30 109 148 146 121 115 131 143 145 134 128 138 125 130 143 124 121 125 122 131 108 76 324 85 110 233 123 115 115 118 121 94 100 106 3 26
339 338 337 335 332 329 328 328 328 329 329 325 316 307 306 307 310 312 313 317 321 323 325 326 331 331 336 347 343 346 103 248 267 231 202 191 187 207 241 264 287 301 300 303 304 317 332 327 330 44 125 47 47 83 135 146 126 125 138 148 139 128 124 124 116 110 114 122 131 128 122 129 116 111 324 58 45 357 84 115 131 141 145 126 132 155 171 225
338 337 336 334 332 329 327 326 325 328 330 326 314 306 304 304 307 309 312 315 318 321 323 325 331 334 340 351 356 1 338 251 256 220 211 198 188 202 242 274 301 306 303 304 305 315 322 333 341 8 20 359 55 76 134 134 115 126 136 142 131 120 122 118 111 91 87 108 120 113 123 139 128 122 123 129 273 37 90 117 132 139 140 136 154 165 169 194
337 335 334 333 330 328 325 323 323 322 324 323 313 305 301 302 305 307 309 312 316 319 319 324 330 337 343 349 35 19 267 244 220 186 196 193 193 202 231 271 312 309 306 307 306 303 304 336 342 5 358 313 24 66 169 160 123 144 138 137 132 121 123 117 111 100 94 112 122 111 120 145 135 115 81 274 253 94 107 123 146 151 151 154 163 167 169 168
335 334 333 332 330 328 325 322 320 316 317 317 311 305 300 300 302 303 305 309 315 315 318 326 327 339 349 352 58 55 244 216 144 166 177 185 195 205 217 226 309 303 297 304 307 306 311 316 312 322 286 284 349 4 206 198 173 143 132 132 134 128 127 119 113 110 104 113 126 123 138 159 158 111 93 255 213 134 134 148 169 161 166 179 172 176 170 152
334 334 331 331 330 327 324 321 318 312 309 309 307 301 298 297 298 301 302 306 312 313 318 322 328 343 355 25 78 236 213 168 161 174 169 185 202 214 212 208 273 284 284 293 298 303 309 304 313 352 340 340 341 337 34 125 138 134 127 123 128 127 124 120 120 126 115 110 132 126 126 151 272 57 164 196 176 163 164 164 177 164 177 186 173 179 159 158
333 332 331 330 329 326 323 319 316 311 306 305 302 298 296 295 295 297 298 303 311 314 315 321 336 346 355 30 223 220 188 136 345 202 188 198 216 217 213 233 255 272 277 276 290 298 302 302 319 347 292 338 341 338 59 102 127 133 132 125 123 112 121 135 134 148 127 134 152 121 85 14 317 195 174 175 165 172 170 172 188 167 180 191 176 178 169 172
332 331 330 328 327 325 322 320 317 310 304 301 297 295 293 292 292 294 296 300 309 314 312 318 328 332 3 326 242 231 224 257 298 267 234 224 236 226 225 250 254 267 270 260 272 289 293 291 297 299 279 327 312 269 30 106 128 138 139 130 124 93 141 180 158 162 130 154 169 118 66 288 275 200 178 170 168 165 164 186 195 177 189 200 186 183 192 180
331 331 329 328 326 323 322 321 315 308 303 298 294 292 291 290 290 289 293 300 311 315 311 318 321 322 76 268 265 265 274 275 280 271 243 222 232 250 253 255 254 261 263 259 265 277 285 286 289 293 282 260 258 303 351 32 121 129 94 90 127 114 198 229 195 163 139 172 177 94 103 230 228 192 182 180 175 161 166 192 188 182 198 203 199 189 207 195
331 330 328 327 325 322 322 317 312 307 300 294 290 289 289 288 286 288 295 304 314 311 312 327 335 14 68 281 277 296 305 277 263 254 228 220 230 245 256 257 257 260 259 258 263 270 276 284 303 298 271 236 258 352 360 352 115 135 127 80 230 124 187 243 224 174 153 168 164 90 125 219 210 187 184 179 178 166 167 189 187 185 194 196 207 195 195 171
329 329 328 327 325 322 319 314 310 304 299 294 290 290 291 290 288 293 301 309 316 307 313 345 36 60 39 282 295 308 291 250 243 235 215 227 236 241 256 265 267 268 265 261 263 269 274 286 300 250 256 260 225 84 28 343 338 176 159 156 184 143 177 237 227 200 176 142 154 100 136 197 223 191 179 172 183 181 168 184 191 188 189 189 206 196 170 135
329 329 327 325 324 322 316 313 309 304 302 297 295 293 294 297 295 297 304 306 307 292 288 277 334 2 269 281 306 306 263 238 244 247 238 247 251 252 261 279 289 290 288 274 268 271 282 295 271 263 292 318 300 90 54 316 285 264 117 120 160 159 173 202 191 217 207 145 169 147 139 188 218 184 171 174 187 185 172 182 190 189 183 182 196 174 143 128
329 327 325 324 323 320 314 311 311 309 305 305 307 303 296 295 292 294 288 282 296 296 295 278 308 22 268 281 287 273 271 234 224 236 245 248 251 256 259 268 292 306 325 310 290 296 303 273 268 324 335 6 14 106 115 239 240 227 114 118 126 169 187 195 177 186 174 153 163 147 142 178 188 181 173 178 184 185 183 175 180 191 173 158 167 154 144 149
327 325 324 323 319 317 313 311 316 314 313 317 315 304 298 295 290 283 263 253 307 239 272 220 175 127 251 251 251 275 288 247 220 228 238 241 244 249 253 257 294 321 334 332 329 334 285 291 342 332 308 308 276 201 183 222 229 143 114 138 152 178 207 204 188 172 151 131 154 159 159 158 166 191 191 178 167 172 176 148 163 179 131 121 142 144 159 206
325 324 323 321 316 315 310 311 320 319 324 332 328 319 315 323 329 302 272 193 206 215 235 224 191 238 283 280 281 295 304 276 229 220 229 234 224 225 243 253 359 357 326 275 298 311 340 310 303 265 255 265 274 257 220 232 271 35 92 141 166 178 207 205 182 155 137 124 195 170 145 153 166 188 195 137 98 115 109 109 123 115 96 105 125 128 153 244
324 322 322 320 314 311 308 313 317 319 331 337 337 348 344 315 47 325 306 268 234 220 233 245 219 236 262 275 286 298 316 283 242 215 223 226 186 173 249 228 67 324 279 264 281 305 22 321 269 251 247 250 266 272 257 288 340 15 82 138 171 189 211 205 148 139 137 118 222 165 127 147 162 162 154 77 93 105 110 113 106 99 94 93 102 100 95 58
323 320 322 318 309 308 307 310 308 315 326 318 326 345 237 268 239 282 319 299 272 224 218 250 248 248 257 265 271 273 277 260 287 269 215 202 160 170 227 183 156 244 272 310 317 328 349 287 262 264 278 276 273 286 322 2 12 8 35 124 170 201 212 298 99 131 144 114 149 152 129 123 92 103 67 65 112 106 102 121 113 109 102 92 93 89 87 79
321 318 320 313 307 306 301 309 315 318 319 295 274 235 258 296 307 317 324 266 288 251 203 231 234 252 263 267 269 263 249 225 281 294 207 160 145 174 164 153 183 237 272 276 261 290 307 273 273 295 314 309 298 306 348 35 47 13 25 104 175 189 148 269 125 132 124 99 135 131 111 81 49 78 53 22 86 78 65 85 85 98 107 105 99 91 95 96
317 316 316 310 305 296 302 327 329 334 333 298 266 273 310 312 309 323 334 193 287 277 225 210 195 216 236 249 266 244 243 218 176 261 208 156 138 153 165 170 172 259 264 252 246 247 265 268 279 297 299 305 313 314 330 39 30 336 4 109 159 190 181 192 144 125 69 53 125 114 76 26 29 90 70 352 49 69 51 62 62 61 91 99 90 90 104 112
315 314 311 311 300 282 313 342 5 4 339 296 288 329 339 323 306 316 346 45 296 284 245 201 180 224 230 229 240 216 219 247 212 218 187 173 169 140 200 198 148 237 247 262 282 273 264 266 280 300 302 311 317 298 294 101 70 337 304 175 170 184 197 158 127 122 79 35 172 132 94 303 326 90 120 353 53 64 39 60 70 66 79 89 90 97 106 107
314 309 305 302 281 267 332 352 11 350 312 283 328 344 350 344 322 273 120 46 312 271 202 172 174 210 220 203 195 172 57 278 234 215 201 200 192 159 194 240 169 218 229 258 290 269 266 282 306 308 296 300 312 297 286 111 104 354 272 234 187 151 145 137 138 140 116 181 205 157 107 182 297 99 165 99 81 75 56 68 78 92 95 93 97 97 92 87
309 303 295 278 260 237 165 315 334 331 279 312 333 339 351 354 343 217 108 37 291 244 164 196 218 176 198 194 150 114 209 264 248 219 207 203 198 156 184 231 203 216 212 110 301 267 279 304 313 307 302 303 311 288 276 93 96 260 253 256 274 3 98 142 152 168 163 142 157 123 92 113 200 261 177 113 105 92 81 90 101 125 122 107 100 98 96 98
305 297 282 258 244 224 207 291 325 331 316 322 329 340 353 351 347 93 94 59 248 224 157 219 225 170 210 185 147 148 219 225 6 251 201 186 188 139 187 222 192 221 221 121 241 266 263 277 280 283 313 313 281 264 277 50 75 252 242 251 275 338 121 157 154 182 164 108 112 219 89 94 286 290 41 124 123 120 145 166 161 154 140 119 119 125 111 105
301 290 270 247 241 231 226 266 292 321 339 336 340 344 348 354 7 74 81 120 198 189 177 177 140 185 239 133 161 200 233 179 186 259 171 176 188 143 185 216 204 246 256 149 212 267 254 254 263 247 274 273 257 264 272 309 250 254 250 281 323 31 73 93 178 213 113 90 145 206 153 100 268 274 188 187 170 158 182 199 175 153 141 144 150 135 114 105
297 280 260 227 204 202 230 253 272 344 355 348 344 340 349 9 41 74 78 233 220 222 230 80 170 172 155 144 187 218 229 231 247 268 113 174 186 134 179 191 175 247 283 192 230 263 265 278 294 250 242 249 252 263 240 205 231 295 33 17 1 357 4 41 110 126 76 40 260 205 155 118 163 245 203 205 216 158 165 192 179 152 151 183 176 110 103 112
297 274 243 201 182 173 198 237 289 359 358 347 338 343 15 30 60 100 159 241 250 229 199 205 214 148 148 164 196 215 225 262 301 152 181 175 136 101 347 143 132 15 332 327 285 284 291 297 289 242 249 254 257 277 279 258 292 60 59 42 18 341 346 7 358 49 80 300 270 209 108 90 97 211 226 258 261 154 163 179 171 160 173 211 145 82 75 43
297 268 234 209 197 188 180 147 55 359 351 351 349 16 63 53 38 156 236 297 326 203 196 198 209 171 163 177 197 201 198 249 256 169 169 152 154 195 191 175 182 165 311 286 287 307 302 279 274 275 271 256 246 275 310 334 10 63 64 52 43 343 349 355 339 40 76 218 250 13 64 67 95 129 341 314 296 164 167 165 153 154 171 209 51 70 57 359
305 273 242 222 214 205 189 113 32 8 357 358 18 49 74 92 222 229 237 277 261 213 179 175 190 166 156 172 209 204 179 225 253 183 165 148 154 205 231 209 179 161 218 235 243 297 302 296 294 291 289 258 220 234 290 311 340 91 109 97 95 35 1 321 309 57 64 158 65 7 39 51 283 4 9 2 17 85 108 104 115 130 147 156 67 74 63 9
328 291 261 235 231 222 204 152 23 15 0 2 60 59 85 150 238 232 226 255 272 280 261 161 164 145 156 183 208 184 166 241 251 171 154 131 122 202 248 241 189 164 164 201 206 202 234 294 280 237 252 248 213 211 196 183 184 185 159 127 130 164 155 239 237 130 135 136 11 2 37 55 278 21 24 28 39 49 67 77 84 88 91 88 62 49 39 20
350 318 291 251 244 230 204 186 39 17 356 16 71 66 161 209 253 239 235 251 244 293 319 163 155 147 179 210 222 189 171 222 236 174 152 159 163 195 212 218 204 174 137 154 225 190 192 248 250 232 224 208 210 217 183 125 62 262 128 95 104 190 151 154 172 138 130 109 20 0 39 342 150 96 61 62 58 54 64 64 68 71 53 59 57 32 34 26
348 335 326 267 254 222 191 186 136 16 356 62 83 171 211 219 242 236 249 239 170 333 332 231 164 146 189 212 240 223 194 194 202 183 193 182 178 197 199 203 202 185 166 172 216 194 183 248 264 274 249 216 205 203 175 137 152 269 97 128 233 177 134 118 108 87 88 100 52 24 72 330 4 96 64 71 69 57 57 51 52 49 35 48 48 22 35 46
344 334 318 288 264 188 177 176 165 193 37 82 132 223 241 254 243 246 284 324 336 321 315 214 180 155 172 191 232 222 182 44 211 187 202 201 211 211 207 212 205 199 189 178 206 216 193 266 285 278 259 239 197 180 190 177 149 122 140 200 230 65 98 108 113 52 52 85 36 29 122 317 344 338 355 43 67 63 57 57 51 32 33 40 22 357 39 82
337 326 298 283 206 165 168 167 165 166 71 86 188 249 265 260 261 282 298 315 315 303 303 224 188 166 161 180 226 204 155 154 222 214 188 195 248 220 200 204 211 212 199 176 205 232 177 255 290 275 256 239 127 151 214 300 11 147 180 181 102 60 318 23 83 110 79 92 357 345 67 60 143 239 324 353 65 107 95 90 80 44 44 48 354 326 12 75
336 346 313 248 153 154 160 161 158 102 67 116 219 272 253 259 278 284 282 292 294 281 275 235 170 155 177 185 199 187 160 168 200 217 175 179 247 227 201 198 209 217 202 168 181 223 161 189 288 298 313 84 87 91 182 311 327 6 39 18 68 131 165 109 82 127 121 121 167 325 2 291 226 223 292 313 205 149 139 133 128 144 181 202 215 241 298 97
355 34 316 172 148 149 152 149 118 58 74 182 212 254 278 288 291 284 287 296 281 244 224 192 63 71 216 213 194 181 168 167 186 206 188 182 218 239 214 202 205 214 197 174 179 192 118 134 243 300 327 48 124 161 163 161 38 45 49 13 350 19 85 94 54 45 114 129 155 137 99 263 250 217 130 289 202 157 152 152 153 169 193 217 213 216 218 149
38 32 283 167 147 144 140 120 57 85 118 254 248 267 286 295 291 289 296 297 274 234 191 164 144 163 207 265 258 208 171 170 195 197 194 195 199 247 226 199 197 195 165 175 194 178 148 156 186 291 337 334 254 256 183 152 129 124 112 70 183 128 91 80 40 336 64 111 150 146 154 256 267 74 100 109 131 147 146 143 143 152 174 219 247 250 186 94
66 15 212 166 153 144 127 79 327 158 149 269 239 263 282 283 282 286 297 301 284 262 194 145 163 177 206 214 222 209 170 185 210 190 197 210 192 218 229 188 183 175 141 169 213 191 167 135 127 275 258 227 253 282 275 138 122 111 87 80 128 125 104 110 136 243 67 85 120 114 114 253 261 125 122 127 131 131 127 127 126 121 157 208 256 57 80 81
113 304 186 165 162 149 106 36 301 233 249 245 238 256 264 269 281 286 295 297 285 282 11 315 191 166 238 219 213 235 183 187 217 202 196 214 200 222 231 172 159 164 138 147 221 213 193 117 99 297 300 288 287 322 351 38 81 76 59 68 81 74 79 112 145 157 97 69 79 82 63 261 252 160 131 135 128 117 112 115 120 131 160 155 121 105 96 87
212 286 158 168 173 157 97 175 209 239 260 262 264 262 256 258 269 272 279 282 276 300 359 290 237 154 240 243 233 265 226 186 219 214 160 147 235 231 216 155 135 125 122 167 173 171 239 135 95 47 357 346 342 353 359 2 34 73 80 86 95 100 98 90 83 88 71 8 107 110 185 249 250 87 115 127 118 106 105 114 129 144 146 124 112 109 100 97
285 297 62 179 184 171 135 186 145 334 294 301 293 275 270 260 253 257 263 266 265 277 347 287 293 296 262 257 285 268 236 159 191 248 133 130 296 272 130 113 104 97 142 163 140 108 122 142 105 108 117 78 41 329 301 329 11 66 92 99 105 113 116 111 73 76 87 303 98 121 191 234 293 82 111 121 115 104 100 114 128 122 114 116 119 117 108 105
81 78 18 202 198 215 252 235 35 282 275 307 309 282 275 276 282 283 274 263 264 288 272 270 302 320 299 304 329 283 257 138 162 231 145 163 283 312 102 104 99 104 128 133 120 93 86 83 109 132 158 176 188 219 231 118 90 94 96 92 92 101 111 111 93 102 144 139 75 192 178 153 172 176 149 141 138 131 129 136 133 99 103 124 134 128 119 108
95 91 184 203 245 257 273 293 284 247 251 286 305 290 292 299 307 308 294 278 290 314 297 277 294 305 294 318 337 295 309 333 224 211 132 133 212 289 138 115 112 115 112 118 125 102 82 24 48 124 150 194 202 178 70 77 92 107 103 93 92 101 105 101 109 147 146 110 13 236 165 145 182 189 164 166 166 152 155 161 157 133 122 136 136 130 128 122
183 280 247 8 236 225 257 271 247 244 256 257 246 266 285 293 296 299 304 308 307 300 285 300 293 266 270 293 9 306 325 331 255 196 93 113 125 21 10 25 58 128 110 83 69 104 103 85 268 102 82 57 60 77 86 88 92 99 106 111 114 113 112 110 129 156 151 125 179 188 159 151 177 173 164 179 178 157 161 165 146 134 137 143 127 124 122 111
349 346 319 351 321 219 244 271 264 273 277 267 255 255 266 280 286 282 280 301 300 273 196 245 285 285 281 294 53 325 282 272 249 49 100 160 137 82 54 350 325 308 102 80 8 94 110 174 231 102 67 55 66 83 90 93 96 94 101 112 111 105 105 107 122 136 113 105 150 151 138 130 157 155 155 166 151 129 141 148 133 137 155 168 146 126 116 95
16 321 322 344 318 274 281 303 311 320 304 288 269 263 267 275 282 288 289 280 277 272 212 215 259 271 280 310 17 276 261 230 171 158 132 149 164 112 157 184 244 324 88 116 332 52 92 216 229 96 62 43 74 89 86 87 91 84 73 85 95 93 88 91 103 102 84 87 120 123 120 121 269 159 128 124 122 115 127 148 151 158 170 170 149 128 130 139
310 280 299 331 299 310 329 320 323 321 305 307 303 299 297 283 285 307 311 283 256 246 224 231 254 265 301 354 343 249 262 23 190 189 105 110 194 176 174 191 167 142 111 130 102 66 94 199 315 70 61 10 93 103 97 89 85 72 46 55 86 93 95 98 110 124 125 126 119 112 128 175 215 175 137 137 143 137 149 166 171 184 184 166 150 144 153 163
340 309 326 16 261 324 340 313 309 299 272 300 323 319 312 304 308 321 320 301 276 251 226 234 249 259 336 357 298 245 233 105 236 237 78 83 164 134 137 192 151 132 145 125 81 95 116 121 91 88 88 279 149 129 117 83 73 55 345 350 101 97 99 94 78 97 130 134 137 156 185 173 162 158 151 157 169 170 177 183 176 177 176 162 154 150 152 151
Height
807 805 804 802 801 799 798 797 796 795 795 795 794 794 793 793 792 792 791 790 790 789 788 787 785 784 782 780 779 776 774 771 769 769 768 764 761 761 761 762 762 761 760 760 760 762 762 763 764 764 769 773 774 774 772 770 768 777 795 809 816 818 812 805 805 805 807 809 807 803 803 807 809 804 796 796 802 805 805 804 802 800 797 796 797 799 799 801
807 805 803 802 801 799 797 796 795 794 794 794 794 794 793 792 791 791 790 790 789 788 788 786 785 784 781 780 778 776 774 771 769 767 763 761 760 761 761 761 761 760 759 759 759 760 762 762 760 762 768 773 772 768 769 766 765 780 796 808 812 809 802 794 795 797 799 803 803 802 802 804 805 803 798 804 812 808 808 809 806 806 803 799 798 799 799 800
806 805 803 802 800 798 797 796 794 794 793 793 793 793 792 792 791 790 789 789 788 788 787 785 784 782 781 780 777 776 773 770 771 766 760 759 760 759 760 761 760 759 758 758 759 760 761 761 758 762 769 774 771 767 771 766 766 778 790 807 808 797 796 792 792 794 793 794 800 803 801 802 802 798 800 808 814 811 813 812 809 811 808 803 799 797 798 799
806 804 803 801 800 798 797 795 794 793 793 793 792 792 792 791 790 789 788 788 787 787 786 784 784 782 781 779 777 776 771 774 773 762 758 759 759 759 760 760 758 758 757 757 759 758 759 758 758 761 769 776 770 766 773 767 768 778 785 800 798 790 797 795 790 792 790 791 796 800 801 804 800 796 801 807 813 815 813 809 808 810 808 806 803 800 800 800
806 804 802 801 799 797 796 795 794 793 792 792 791 791 790 790 790 789 788 787 786 786 785 784 783 781 781 778 777 773 774 788 776 757 759 758 758 759 759 759 758 757 756 756 755 754 756 756 757 763 769 774 771 769 773 763 763 781 786 787 787 787 797 794 788 790 790 792 796 799 802 804 799 798 803 805 811 812 807 804 805 806 806 806 804 803 802 801
805 803 802 800 798 797 795 794 793 792 792 791 791 790 790 790 788 788 787 786 786 786 784 783 782 781 780 777 777 772 779 790 769 755 760 757 758 759 758 758 757 757 755 754 752 751 754 753 758 767 771 773 772 772 773 762 760 783 790 782 782 783 789 789 786 789 790 794 800 800 799 799 801 805 803 803 807 803 800 801 801 803 802 803 803 803 803 802
805 803 801 800 798 796 794 794 792 791 791 790 790 789 789 789 788 788 786 786 786 785 784 783 782 780 778 777 776 773 780 778 759 757 760 756 760 758 758 758 756 757 755 753 751 752 754 756 761 763 768 774 774 773 771 765 761 778 791 784 782 780 782 784 783 788 789 794 798 797 798 800 804 807 804 804 803 799 799 799 799 800 799 800 801 802 802 802
804 802 801 799 797 796 794 793 791 791 790 789 789 788 788 788 787 787 785 786 784 784 784 782 782 780 778 777 776 779 780 769 756 758 758 757 759 757 759 757 756 756 753 753 750 751 755 759 761 758 768 773 771 773 770 771 772 777 786 784 782 782 782 780 782 788 790 795 797 797 802 803 800 801 805 806 802 800 800 800 799 800 799 800 801 801 802 802
803 801 799 798 796 795 793 792 791 790 789 788 788 787 787 787 786 786 785 785 784 784 783 782 782 779 779 776 777 785 775 759 755 757 757 758 758 757 759 756 756 755 752 752 748 751 756 759 759 757 768 769 766 771 770 779 785 777 780 782 783 786 785 782 784 789 793 796 797 802 808 804 797 798 808 807 801 801 800 801 802 801 802 801 801 801 802 803
802 800 799 797 795 794 793 791 791 789 788 788 787 786 786 786 785 785 784 784 783 783 782 782 781 779 780 776 781 787 766 753 757 756 756 757 757 758 758 757 756 754 753 751 748 750 752 755 754 749 758 763 764 769 768 776 779 772 777 781 783 787 786 785 788 790 793 797 797 805 813 808 798 801 813 808 799 800 801 803 803 802 804 802 802 802 803 804
801 800 798 796 795 794 792 791 790 789 788 787 786 786 785 785 784 784 784 784 783 783 782 781 780 780 780 777 785 783 759 754 758 755 757 757 757 757 756 757 755 754 754 751 749 748 748 748 745 747 759 762 764 768 766 766 768 770 778 786 788 787 789 789 792 792 793 800 799 802 813 812 805 807 811 804 799 801 802 804 804 804 805 802 803 804 804 805
801 799 797 795 794 792 791 790 789 788 787 786 786 785 784 784 784 783 783 783 782 782 782 781 781 780 778 780 781 770 755 756 758 756 758 756 757 757 755 757 755 754 753 751 749 746 747 745 743 756 763 760 768 774 768 761 766 774 778 793 799 794 797 795 793 792 792 800 797 798 817 821 814 812 807 801 800 801 803 804 804 805 805 804 804 804 805 805
800 798 796 795 793 792 791 789 788 788 786 785 785 783 784 783 782 783 782 782 782 782 781 781 781 779 781 781 767 756 755 757 757 758 758 756 756 756 755 756 754 753 752 751 748 744 746 744 746 755 755 760 772 768 760 758 768 782 783 793 804 809 812 799 792 794 793 798 791 796 827 832 819 813 806 801 801 803 807 807 805 806 805 805 805 805 805 804
798 797 795 793 792 791 790 788 788 786 785 785 783 783 783 782 782 782 781 782 781 781 781 780 781 779 782 777 757 753 756 755 756 756 756 756 755 755 754 754 753 752 751 750 747 744 744 742 745 751 751 758 763 756 761 768 773 787 794 797 807 820 821 800 791 796 798 799 789 798 831 834 820 815 807 802 801 803 808 807 806 807 805 805 805 806 806 804
797 796 794 793 791 790 789 788 787 786 785 784 782 782 781 781 781 780 781 781 781 781 780 780 780 779 784 775 755 752 755 753 754 753 753 755 754 754 753 752 752 751 751 749 746 745 743 742 748 759 758 753 756 767 778 781 780 788 804 815 815 818 819 802 791 794 799 799 792 803 829 831 819 814 807 802 803 803 807 808 806 807 806 806 805 805 806 805
796 795 793 792 790 789 788 787 786 785 784 782 782 781 781 781 780 780 781 780 780 781 779 781 779 779 786 775 755 752 753 752 752 751 753 753 753 753 751 751 751 751 751 748 746 744 743 746 752 757 759 759 766 780 787 790 792 790 800 818 819 817 821 809 794 789 792 798 799 805 822 828 818 810 806 804 805 805 807 809 807 807 807 806 806 805 806 807
795 793 792 790 789 788 787 786 785 784 783 782 781 780 780 780 779 779 780 779 781 779 778 780 778 781 780 765 757 758 753 751 751 751 752 751 752 752 751 752 751 750 749 745 745 745 746 751 757 758 760 767 772 780 798 808 803 794 797 810 813 814 817 812 802 793 790 798 804 805 813 821 813 806 807 806 805 805 807 809 808 807 807 807 807 806 807 808
794 792 791 789 788 788 786 786 784 783 782 781 780 780 780 780 779 779 779 778 778 778 781 779 779 788 783 764 761 760 752 751 751 750 751 750 750 751 751 752 751 751 753 753 751 752 755 756 762 770 773 776 777 784 805 809 794 791 797 808 814 815 812 808 802 793 793 801 806 808 813 817 811 805 807 805 804 806 806 807 808 807 808 809 808 808 809 808
793 791 790 788 787 787 786 785 784 783 782 781 781 780 778 778 777 777 777 778 780 781 783 780 778 786 782 766 759 755 750 750 750 749 749 748 749 750 750 751 751 755 765 771 766 760 763 766 773 785 788 785 782 783 791 788 778 780 789 800 810 812 807 800 793 787 791 804 809 809 813 816 815 809 806 806 805 807 808 808 808 809 809 810 811 811 811 811
791 790 789 788 787 786 785 784 784 783 781 781 780 779 780 782 783 782 778 776 776 774 774 773 771 774 770 761 755 753 751 750 750 748 746 748 748 750 751 752 757 764 771 779 778 764 764 782 791 791 790 783 776 773 772 769 766 771 783 796 799 802 801 792 789 787 787 803 812 808 811 817 817 812 808 808 809 810 812 812 811 811 812 813 814 815 815 814
790 789 788 787 786 785 785 784 783 782 782 782 781 781 783 786 789 789 782 775 768 764 767 764 764 768 762 757 753 751 755 754 749 745 746 746 747 757 761 759 771 780 775 775 776 766 770 792 793 780 777 774 769 767 763 762 764 769 780 795 799 798 797 787 788 791 787 800 813 810 814 820 817 815 812 810 812 814 814 814 815 814 815 815 816 818 818 817
789 788 786 786 785 784 784 783 783 782 782 782 781 782 781 780 782 782 781 782 770 759 764 761 761 764 756 754 751 750 760 764 756 749 745 746 750 763 767 766 780 785 774 774 780 782 789 793 781 770 768 768 766 763 762 763 767 773 778 793 802 796 793 790 789 793 789 798 816 815 818 823 820 817 816 813 813 814 812 812 814 815 816 817 817 818 819 820
789 786 786 785 784 784 783 783 783 782 782 782 781 780 778 776 776 775 778 786 778 761 760 762 762 763 757 755 749 749 762 766 764 755 743 747 756 761 768 774 781 782 779 782 788 798 802 787 770 766 764 766 768 764 764 767 772 777 779 791 799 790 792 799 797 797 793 798 813 817 821 826 823 820 819 816 813 813 814 813 813 814 816 817 816 816 818 819
787 785 786 784 784 784 782 783 783 782 782 781 781 778 776 776 775 776 777 784 784 766 755 755 756 758 756 751 747 752 761 758 760 756 743 749 758 760 767 774 780 786 784 782 785 795 796 776 762 764 764 766 772 769 766 773 780 780 776 784 792 787 786 792 794 797 801 806 808 814 831 835 827 827 826 819 816 817 818 817 818 818 816 815 814 814 814 814
785 785 784 783 784 783 782 783 782 782 782 780 780 777 776 776 774 776 780 789 791 771 755 752 753 753 747 746 748 749 757 756 752 750 742 745 755 762 767 767 776 790 786 780 785 791 785 766 758 766 768 767 774 775 769 774 785 784 776 775 780 780 780 786 790 798 817 828 812 809 841 851 834 830 831 825 824 825 823 822 823 821 817 815 815 813 812 812
784 784 783 783 783 782 783 783 781 783 781 779 778 776 775 775 774 775 782 799 799 776 763 760 758 754 745 748 747 746 765 765 745 740 741 743 746 755 770 770 772 783 780 776 781 783 775 761 758 768 771 769 774 775 767 768 786 791 776 765 767 769 776 787 792 799 820 829 809 801 831 855 844 833 832 830 831 831 827 826 825 821 819 817 817 816 814 815
783 782 782 783 781 782 783 781 782 782 780 779 777 776 775 773 774 773 785 814 806 772 765 766 759 753 746 746 743 755 781 768 744 741 739 743 744 747 770 778 775 777 769 774 789 784 771 766 767 768 771 774 778 777 765 763 783 789 767 759 764 764 772 785 789 797 805 807 810 807 817 846 854 841 833 832 834 836 832 829 826 821 820 819 819 818 817 817
782 781 781 781 781 782 782 781 782 779 779 779 775 775 774 772 774 775 797 827 801 760 761 762 751 745 742 742 743 756 767 756 758 756 734 739 747 750 772 777 775 777 765 778 802 785 768 773 773 769 775 780 777 772 762 760 776 776 758 758 762 760 768 774 780 791 792 804 829 823 811 840 859 843 832 832 835 840 836 829 826 821 819 819 819 819 818 818
781 780 780 780 781 781 781 782 781 779 779 777 774 775 772 772 774 781 808 821 783 755 758 755 750 748 747 749 752 754 753 752 764 755 735 742 746 749 769 769 767 775 767 775 793 781 768 766 763 766 777 777 769 762 756 761 770 762 753 757 758 761 768 769 777 785 787 809 835 825 813 838 859 847 837 837 836 838 836 829 825 823 821 820 818 818 819 819
779 779 779 780 781 781 781 781 779 779 778 775 776 774 771 776 783 802 825 809 773 761 759 755 757 755 755 763 764 759 757 757 755 749 746 750 747 747 756 755 760 773 774 774 780 775 764 755 754 761 766 762 758 756 753 756 757 753 756 764 766 767 768 772 780 782 800 828 832 819 813 826 848 849 839 835 828 827 831 831 828 825 822 821 819 820 820 819
778 778 779 779 779 780 781 780 779 779 777 776 776 773 775 785 795 818 821 785 767 770 762 761 763 756 760 770 771 765 763 761 754 756 761 757 758 761 761 765 770 779 786 784 781 774 766 764 762 755 750 750 755 757 753 750 749 754 764 774 783 785 780 784 787 791 823 846 831 817 812 819 842 847 834 826 819 817 822 825 827 827 825 823 822 822 821 821
778 777 778 778 778 779 780 779 778 778 778 776 776 775 785 802 810 816 800 772 774 777 765 766 765 759 763 768 769 766 766 766 758 760 766 766 772 772 772 779 781 792 804 797 790 784 775 770 763 754 747 746 758 767 762 755 752 760 771 781 800 810 808 809 810 817 837 840 825 817 815 827 843 840 830 824 816 814 816 817 823 826 826 825 824 824 822 822
777 776 777 777 778 778 778 778 778 778 777 776 777 780 794 816 817 802 788 779 777 767 757 761 759 759 765 770 771 766 766 769 761 760 763 766 775 774 771 772 770 787 802 795 796 798 790 775 761 762 757 744 753 772 776 770 763 767 776 787 806 820 830 834 828 835 845 834 822 816 820 838 846 835 831 829 820 816 816 818 823 825 825 826 824 823 823 822
777 776 777 777 777 777 778 779 778 778 777 776 781 791 805 818 807 787 784 781 770 758 755 759 759 762 767 770 769 763 768 772 761 761 767 769 780 783 777 773 767 775 786 792 797 799 807 798 771 766 764 749 749 759 763 764 765 768 767 777 797 806 820 831 826 832 842 837 830 827 836 852 854 843 836 830 825 822 822 824 826 827 827 826 825 824 824 825
777 777 777 776 776 776 777 780 778 778 779 778 788 803 812 812 798 786 782 774 765 761 758 756 760 770 772 769 764 757 764 771 762 764 771 773 781 782 778 775 769 770 782 798 798 791 805 802 766 752 752 747 750 746 742 756 771 770 762 775 790 786 794 811 815 816 826 842 851 848 850 850 844 840 833 829 830 828 829 830 829 830 829 827 828 827 826 828
778 777 776 775 775 775 777 779 779 779 779 782 797 809 808 799 789 782 772 763 764 766 767 767 767 776 781 774 769 761 758 764 765 770 774 773 775 775 772 768 763 765 775 789 792 790 801 793 759 750 750 741 743 742 737 754 771 771 772 781 776 764 774 800 817 816 822 850 864 856 855 849 839 837 832 831 835 833 834 835 833 833 832 831 832 830 829 829
779 777 776 774 773 774 777 778 779 780 779 787 801 805 798 787 777 772 764 760 763 763 771 780 773 773 782 779 774 767 763 766 768 773 777 776 774 769 766 762 755 757 761 770 780 779 789 791 763 753 758 741 730 737 737 738 750 767 778 772 761 762 770 784 811 826 837 863 868 857 861 860 853 849 837 833 839 840 839 838 836 835 833 834 833 830 829 828
778 777 775 772 772 774 776 778 779 780 781 791 801 799 792 783 770 764 761 759 762 763 772 779 769 765 773 779 774 765 767 774 774 773 776 778 773 760 759 760 752 749 747 756 772 768 775 793 772 748 754 745 728 742 755 744 738 752 761 753 760 784 790 789 805 823 845 872 872 861 862 860 859 856 843 837 840 841 841 838 838 837 834 835 833 829 828 826
778 779 776 772 772 773 776 778 779 781 787 797 804 798 788 779 767 760 758 758 761 765 771 770 763 762 766 768 769 765 766 773 772 772 775 778 773 755 749 753 750 746 743 750 767 764 765 791 785 753 744 744 740 754 772 766 749 745 750 752 760 778 789 795 802 812 838 868 871 864 863 860 855 849 842 839 837 836 839 839 838 837 834 834 832 830 829 827
778 782 780 772 772 775 776 778 780 787 795 799 800 794 784 777 768 756 754 758 760 759 762 762 760 765 764 761 763 762 764 767 766 768 770 770 769 756 744 745 746 744 743 746 757 760 764 784 791 767 747 752 761 763 766 767 761 759 765 769 770 773 779 791 801 804 821 850 863 864 867 861 847 838 837 837 833 833 836 836 837 836 834 833 832 830 830 827
779 786 782 772 774 775 775 782 787 791 797 798 794 789 784 778 770 759 752 754 754 746 745 752 756 761 762 761 761 758 760 765 762 764 766 762 765 760 742 736 739 740 746 754 757 760 767 778 785 778 768 769 767 754 747 750 753 759 768 772 775 778 784 805 824 815 810 832 849 854 861 859 842 834 835 835 832 832 833 835 838 836 835 834 831 830 829 827
783 788 781 773 776 775 778 788 791 791 795 795 789 784 781 776 769 762 754 751 750 741 737 743 750 754 756 757 756 753 756 763 760 760 760 755 757 753 735 726 731 733 743 757 756 748 752 766 778 780 775 771 761 748 744 744 742 750 761 765 770 775 783 808 831 824 818 831 837 840 854 854 838 831 833 834 832 832 833 835 837 837 836 834 832 830 829 828
786 786 778 774 775 774 782 794 793 792 793 787 781 778 775 774 770 764 758 755 750 743 743 745 745 749 751 749 750 750 752 757 756 752 752 750 746 738 726 723 728 731 738 751 752 743 747 764 778 780 772 762 754 747 743 741 742 756 767 766 771 779 782 794 807 811 821 834 833 839 854 851 837 831 831 833 833 832 834 835 835 836 834 833 833 831 830 830
784 782 777 777 776 775 787 797 795 794 791 783 781 778 772 770 767 763 761 758 749 745 748 748 744 746 746 743 745 747 748 754 754 746 745 748 739 727 721 722 726 732 738 744 746 746 757 771 779 789 792 785 777 771 763 755 754 767 777 774 775 781 784 791 797 804 822 834 831 838 850 848 837 831 830 833 833 834 835 834 833 834 833 833 833 833 832 832
784 783 779 778 777 778 786 789 790 794 791 786 785 781 775 769 760 755 757 753 744 741 748 748 741 742 741 740 744 743 741 747 752 746 743 743 735 723 721 722 724 729 732 732 731 738 757 770 774 789 807 809 806 798 785 773 767 773 780 778 779 782 783 792 802 812 828 836 830 830 840 844 839 833 833 835 835 836 836 834 833 832 833 834 834 833 834 833
785 788 787 783 780 781 783 781 784 791 790 789 788 780 776 773 760 749 748 747 740 736 742 743 739 741 743 743 749 749 741 740 744 745 744 744 739 729 723 722 723 726 728 726 726 736 755 766 768 778 790 792 791 783 771 769 777 785 787 783 785 785 783 791 805 817 827 833 834 832 832 842 845 838 836 836 835 838 837 834 834 834 834 834 833 833 834 833
786 789 789 789 788 787 786 782 784 787 785 787 788 781 776 775 769 757 747 743 739 736 740 740 739 746 750 748 753 754 746 741 742 743 744 742 739 732 724 722 724 726 726 726 727 737 759 770 769 772 776 774 773 769 764 770 781 788 789 790 791 789 787 791 802 812 818 825 835 834 830 839 843 837 835 835 833 835 836 834 834 835 834 834 833 833 834 834
786 786 781 783 789 791 790 786 783 783 781 782 783 780 777 776 775 769 757 746 740 738 744 747 743 745 747 747 754 757 751 750 749 745 743 742 740 738 733 729 728 726 726 731 730 736 760 773 768 768 772 771 772 771 769 775 784 788 790 793 793 791 791 795 802 809 810 811 821 828 831 836 836 832 832 832 829 832 834 832 832 833 833 833 833 834 834 834
783 785 779 778 785 788 786 783 780 780 781 780 779 778 778 777 774 768 760 755 751 742 744 753 750 742 740 742 751 758 757 756 755 748 743 743 742 744 746 743 736 727 728 737 736 736 755 771 767 766 771 773 776 777 774 779 788 792 793 793 792 792 792 796 804 809 807 808 814 823 832 835 832 830 829 827 827 830 830 830 831 832 833 832 833 834 834 834
786 788 785 784 785 783 781 780 780 782 780 778 780 776 772 773 772 764 757 758 760 748 742 750 748 739 739 742 749 755 749 744 748 745 740 743 745 744 748 748 742 735 734 740 741 739 753 769 766 762 772 781 783 781 780 784 791 796 799 796 793 796 799 803 809 811 814 821 823 825 835 838 831 827 828 827 828 829 830 831 831 831 832 832 832 833 833 833
787 786 785 789 789 783 782 781 781 785 783 779 780 777 771 770 768 765 758 749 748 746 740 742 742 737 739 742 745 746 735 729 735 733 727 734 739 737 738 738 736 740 743 743 744 744 753 766 765 764 781 791 786 785 788 786 789 799 805 804 801 803 807 809 810 811 815 825 831 832 837 837 830 827 828 829 828 829 831 831 831 831 831 831 831 832 833 833
786 784 782 786 790 785 784 784 783 786 785 779 777 775 773 768 761 763 763 747 735 734 733 732 735 738 744 747 741 734 725 720 724 721 716 721 724 723 727 727 727 736 744 746 748 749 753 763 766 772 788 792 787 787 786 786 801 814 811 805 805 805 806 808 810 810 811 818 826 829 828 826 826 827 829 830 829 829 829 828 829 830 829 830 830 830 831 832